Temp
4 4 4 5 5 5 5 5 5 5 6 6 6 7 7 7 7 8 8 8 8 8 8 8 8 8 8 8 8 8 8 10 11 11 11 11 11 12 12 12 12 13 13 12 13
3 3 4 4 4 4 4 4 4 4 5 5 5 5 6 6 7 7 8 8 8 8 8 7 7 7 8 8 8 7 8 10 10 10 10 11 11 12 12 12 12 12 12 12 12
3 3 3 3 3 3 3 3 4 4 4 4 5 5 5 6 6 7 7 8 8 8 8 8 7 7 7 6 7 7 8 10 10 9 10 11 10 11 11 12 13 12 12 12 12
2 2 2 2 3 3 3 3 3 3 4 4 4 4 5 5 3 6 6 6 6 7 7 7 7 7 6 5 6 6 7 8 9 9 9 11 10 10 11 11 12 11 11 12 12
2 2 2 3 3 3 3 3 3 3 4 4 4 4 5 5 5 5 5 6 6 6 6 6 6 6 5 5 5 6 7 7 7 7 7 10 11 10 10 10 11 12 12 12 12
3 3 3 3 3 3 3 3 3 3 3 3 3 3 4 3 4 4 4 4 5 5 5 5 5 4 4 4 5 6 6 6 7 7 7 7 11 9 11 10 11 11 12 13 13
3 2 2 2 2 2 2 2 2 2 3 2 2 2 2 2 2 3 3 3 4 4 4 4 4 3 2 3 3 4 5 5 6 7 6 6 7 11 12 10 10 12 12 12 12
2 2 2 2 2 2 2 2 2 2 2 2 2 1 1 1 1 1 1 1 2 3 3 2 2 2 2 1 2 3 3 5 7 6 6 6 8 13 12 11 10 12 12 12 12
2 2 2 2 2 2 2 2 2 2 2 1 1 1 -1 0 -0 -0 -0 0 0 1 2 1 1 1 0 1 2 4 5 6 7 7 7 6 7 12 9 9 10 10 11 12 12
2 2 2 2 2 2 2 2 1 1 1 1 0 -0 -1 -0 -1 -1 -1 -1 -0 -0 0 1 -0 -1 0 1 3 5 6 6 7 8 7 7 7 8 9 9 10 10 10 10 11
1 2 2 1 2 1 1 1 1 1 0 -0 -1 -1 -1 -1 -2 -2 -2 -1 -1 -1 -2 -1 -1 1 1 2 2 3 5 6 6 7 7 7 7 7 8 8 8 9 8 8 9
1 1 1 1 1 1 1 0 0 -0 -0 -1 -2 -2 -1 -1 -1 -3 -2 -3 -3 -2 -1 -1 -0 0 0 0 1 2 2 4 4 5 5 6 6 7 7 8 8 8 8 8 9
1 1 1 0 0 0 -0 -0 -1 -1 -1 -2 -2 -2 -2 -3 -3 -3 -3 -3 -3 -2 -1 -1 0 -0 -1 -1 -1 1 1 2 4 4 4 5 5 6 6 6 6 6 8 9 10
1 1 1 0 -0 -0 -1 -1 -1 -1 -3 -2 -3 -3 -3 -3 -3 -3 -3 -3 -3 -2 -2 -1 -1 -1 -1 -1 -0 0 1 2 2 3 4 5 7 7 7 7 7 7 7 8 11
1 1 0 0 -1 -1 -2 -1 -2 -2 1 -2 -3 -2 -3 -3 -4 -3 -3 -3 -3 -2 -2 -1 -1 -1 -1 -0 0 1 1 2 2 2 3 4 5 7 7 7 7 7 7 7 10
1 0 0 -0 -1 -2 -2 -2 -2 -3 1 -2 -3 -3 -3 -3 -3 -3 -3 -3 -3 -3 -2 -2 -2 -2 -1 -0 -0 -0 0 1 1 2 4 4 5 7 7 8 8 8 8 8 9
0 0 -0 -1 -2 -2 -2 -2 -3 -0 -2 -2 -3 -3 -3 -3 -3 -3 -3 -2 -2 -3 -1 -1 -1 -1 -2 -1 -1 -0 0 2 2 3 3 4 5 5 7 8 7 7 7 7 7
0 -0 -0 -1 -2 -2 -2 -4 -2 -2 -2 -3 -4 -3 -3 -3 -3 -3 -3 -2 -2 -4 -3 -2 -1 -2 -2 -1 -1 -1 0 2 3 5 6 4 5 6 6 6 6 6 7 7 7
0 -0 -0 -1 -2 -2 -3 -2 -2 -3 -4 -4 -4 -3 -2 -3 -3 -3 -3 -3 -3 -3 -4 -3 -2 -2 -2 -2 -2 -1 -1 -0 2 3 6 6 5 5 6 6 6 6 6 6 9
-0 -0 -0 -1 -2 -3 -4 -4 -4 -5 -5 -5 -4 -3 -3 -3 -3 -3 -3 -3 -3 -3 -4 -3 -3 -2 -2 -3 -2 -2 -2 -3 1 2 4 8 7 7 7 6 7 6 5 6 9
-0 -1 -1 -1 -2 -3 -4 -3 -5 -5 -6 -5 -4 -4 -4 -4 -4 -3 -3 -3 -3 -4 -4 -3 -3 -2 -2 -2 -1 -3 -3 -3 -0 2 6 7 8 7 7 5 5 5 5 6 9
-1 -2 -2 -2 -4 -3 -5 -4 -4 -5 -6 -6 -6 -5 -4 -4 -5 -4 -3 -4 -4 -4 -4 -3 -4 -3 -1 -1 -2 -3 -4 -3 -3 1 3 4 7 5 5 4 3 4 4 5 10
-1 -2 -2 -3 -3 -3 -5 -5 -5 -6 -6 -6 -6 -5 -5 -5 -5 -4 -4 -4 -5 -5 -4 -4 -3 -2 0 -1 -2 -2 -1 -3 -2 -2 -0 5 6 4 4 4 3 3 4 4 8
-2 -3 -4 -4 -4 -4 -5 -4 -6 -6 -6 -6 -6 -6 -6 -5 -5 -5 -5 -5 -6 -6 -6 -6 -5 -3 -1 -0 -1 -1 -2 -1 -1 -1 1 3 5 5 5 4 3 2 3 4 6
-2 -3 -3 -5 -6 -6 -7 -5 -7 -6 -6 -6 -6 -6 -6 -7 -5 -5 -5 -5 -6 -6 -6 -5 -5 -4 -3 -2 -2 -2 -2 -1 -1 -0 0 1 3 3 4 3 2 2 3 4 4
-2 -2 -3 -3 -4 -5 -6 -6 -6 -6 -7 -6 -6 -6 -6 -7 -6 -6 -6 -6 -6 -6 -6 -6 -6 -5 -4 -3 -2 -2 -2 -2 -1 -1 -1 0 1 1 1 1 1 2 2 3 3
-2 -2 -2 -3 -4 -6 -6 -7 -7 -7 -4 -6 -6 -7 -7 -6 -6 -5 -5 -4 -5 -5 -6 -6 -6 -5 -4 -2 -2 -1 -1 -1 -1 -1 -1 -0 1 1 1 1 1 3 2 3 4
Height
3118 3117 3115 3115 3114 3113 3113 3112 3111 3110 3108 3109 3109 3107 3108 3108 3107 3107 3110 3113 3112 3113 3118 3120 3123 3125 3128 3131 3133 3136 3136 3132 3134 3137 3139 3140 3141 3144 3145 3146 3148 3150 3152 3149 3150
3115 3114 3113 3112 3111 3111 3109 3108 3107 3106 3106 3106 3105 3103 3102 3101 3102 3103 3102 3103 3104 3106 3111 3113 3116 3118 3121 3123 3123 3125 3125 3125 3132 3134 3133 3135 3137 3141 3141 3142 3144 3144 3145 3146 3148
3114 3113 3112 3111 3110 3109 3109 3108 3106 3105 3105 3104 3102 3100 3098 3097 3096 3094 3095 3097 3098 3100 3102 3105 3109 3111 3112 3115 3115 3116 3111 3124 3125 3128 3129 3131 3132 3135 3134 3137 3140 3143 3143 3144 3144
3113 3113 3112 3112 3111 3110 3109 3107 3105 3104 3103 3102 3100 3097 3095 3094 3097 3090 3091 3092 3093 3093 3095 3097 3101 3103 3104 3104 3108 3110 3108 3113 3120 3124 3121 3123 3127 3126 3129 3130 3135 3136 3136 3138 3141
3114 3113 3112 3111 3110 3108 3107 3106 3104 3102 3100 3098 3097 3094 3093 3091 3088 3086 3085 3085 3085 3086 3088 3090 3093 3095 3095 3100 3105 3099 3102 3108 3111 3114 3112 3115 3115 3118 3118 3124 3126 3127 3127 3131 3135
3114 3113 3111 3109 3108 3106 3104 3102 3100 3099 3097 3095 3094 3092 3090 3090 3085 3083 3082 3080 3080 3080 3080 3083 3086 3088 3087 3089 3094 3098 3098 3099 3103 3105 3105 3106 3107 3113 3108 3117 3118 3119 3121 3125 3127
3114 3112 3111 3109 3106 3104 3102 3099 3096 3094 3093 3091 3089 3087 3086 3085 3082 3081 3079 3077 3074 3075 3075 3074 3078 3079 3081 3083 3085 3087 3089 3090 3089 3095 3096 3101 3095 3091 3106 3110 3110 3112 3114 3117 3120
3113 3111 3110 3108 3104 3102 3099 3096 3093 3091 3088 3086 3085 3083 3082 3081 3078 3077 3076 3074 3071 3068 3067 3068 3070 3071 3072 3076 3076 3080 3083 3079 3072 3086 3086 3095 3079 3081 3097 3099 3099 3104 3107 3108 3110
3110 3108 3107 3105 3102 3100 3096 3093 3090 3088 3085 3083 3082 3081 3081 3077 3075 3072 3070 3069 3066 3065 3063 3061 3062 3063 3068 3069 3074 3072 3064 3064 3070 3076 3083 3083 3070 3073 3087 3091 3090 3094 3095 3098 3101
3108 3105 3103 3101 3099 3096 3093 3090 3086 3084 3082 3080 3079 3080 3078 3077 3072 3069 3066 3064 3062 3060 3059 3059 3058 3059 3061 3065 3055 3056 3059 3064 3065 3069 3074 3071 3060 3069 3078 3081 3082 3086 3088 3089 3089
3105 3102 3100 3098 3096 3093 3090 3087 3085 3081 3079 3078 3076 3075 3073 3072 3067 3065 3062 3061 3058 3057 3058 3059 3057 3055 3057 3057 3055 3058 3056 3053 3057 3061 3063 3060 3057 3061 3069 3071 3071 3074 3076 3077 3077
3103 3099 3096 3094 3091 3089 3087 3085 3082 3080 3075 3071 3070 3070 3068 3066 3065 3064 3060 3061 3059 3057 3056 3055 3050 3052 3051 3051 3050 3051 3051 3048 3053 3053 3055 3055 3049 3054 3057 3057 3061 3064 3064 3064 3067
3100 3097 3093 3091 3087 3085 3084 3081 3077 3074 3071 3068 3068 3068 3067 3064 3061 3060 3059 3057 3055 3053 3052 3049 3047 3047 3046 3046 3046 3045 3045 3047 3048 3050 3048 3049 3043 3043 3045 3047 3048 3049 3051 3054 3056
3097 3093 3090 3087 3086 3081 3079 3077 3074 3071 3069 3070 3068 3066 3063 3060 3059 3057 3055 3054 3052 3050 3047 3043 3042 3041 3041 3040 3041 3038 3042 3042 3044 3045 3037 3044 3031 3034 3037 3037 3040 3042 3044 3045 3047
3094 3091 3087 3083 3081 3079 3077 3072 3070 3068 3065 3067 3065 3062 3060 3060 3056 3056 3052 3050 3047 3045 3045 3038 3037 3037 3035 3034 3035 3033 3036 3037 3037 3035 3037 3033 3033 3023 3030 3029 3032 3035 3036 3037 3037
3091 3088 3085 3082 3079 3076 3072 3070 3068 3070 3064 3065 3062 3061 3059 3057 3054 3050 3049 3046 3042 3038 3036 3031 3029 3030 3031 3031 3031 3031 3032 3032 3033 3031 3022 3022 3027 3016 3021 3020 3026 3029 3029 3029 3029
3089 3085 3082 3079 3077 3073 3070 3069 3070 3065 3065 3064 3061 3058 3055 3053 3051 3047 3045 3043 3041 3037 3030 3028 3024 3024 3025 3027 3027 3027 3027 3023 3021 3018 3013 3018 3021 3017 3013 3013 3019 3021 3022 3023 3021
3086 3082 3079 3077 3074 3071 3069 3071 3069 3064 3063 3061 3058 3055 3053 3051 3048 3045 3041 3039 3037 3034 3029 3025 3022 3021 3019 3020 3022 3022 3020 3015 3002 2999 3004 3013 3007 3009 3012 3013 3012 3014 3015 3016 3015
3083 3079 3076 3074 3071 3070 3069 3070 3066 3063 3060 3058 3055 3053 3051 3049 3046 3042 3039 3036 3035 3033 3031 3025 3020 3019 3017 3016 3018 3016 3015 3014 3007 3003 2992 2993 3005 3007 3008 3010 3011 3012 3010 3008 3007
3081 3077 3074 3071 3069 3068 3068 3066 3063 3059 3057 3056 3054 3052 3049 3047 3044 3040 3037 3035 3033 3032 3029 3026 3020 3017 3014 3012 3011 3011 3013 3012 3005 3003 2988 2983 2991 2996 2995 3004 3008 3007 3004 3000 3001
3079 3075 3072 3069 3067 3066 3065 3063 3058 3055 3054 3054 3052 3049 3047 3044 3041 3038 3036 3034 3030 3029 3027 3024 3022 3016 3012 3009 3007 3007 3006 3007 3005 2998 2983 2977 2979 2987 2995 2999 3003 3003 2999 2996 2997
3076 3074 3070 3067 3067 3062 3062 3057 3054 3051 3051 3049 3047 3045 3044 3041 3037 3034 3032 3030 3028 3025 3022 3021 3017 3012 3007 3005 3005 3002 3005 3004 3004 2998 2989 2989 2978 2982 2989 2995 2995 2995 2995 2993 2992
3072 3070 3067 3064 3064 3060 3058 3053 3050 3049 3048 3046 3044 3043 3040 3037 3033 3028 3026 3025 3022 3021 3018 3016 3012 3007 2999 3001 3000 3001 3001 3000 3000 2999 2993 2985 2979 2986 2989 2991 2991 2991 2992 2993 2989
3069 3067 3064 3061 3058 3056 3053 3050 3050 3046 3044 3042 3039 3038 3035 3032 3030 3021 3020 3018 3015 3014 3013 3012 3008 3006 3001 2992 2994 2998 2999 2997 2997 2995 2992 2986 2980 2984 2986 2988 2989 2989 2992 2993 2989
3066 3064 3062 3060 3057 3052 3050 3047 3045 3044 3042 3039 3036 3035 3032 3026 3024 3017 3012 3007 3005 3004 3003 3004 2998 3000 2999 2996 2995 2995 2995 2995 2994 2993 2989 2988 2981 2983 2987 2988 2987 2986 2991 2993 2991
3064 3061 3058 3054 3051 3048 3048 3047 3044 3043 3040 3035 3033 3031 3027 3022 3018 3006 3004 2997 2994 2992 2992 2994 2991 2994 2991 2991 2990 2987 2987 2988 2988 2988 2988 2984 2976 2982 2984 2984 2982 2984 2989 2991 2990
3060 3059 3054 3052 3048 3046 3045 3043 3040 3037 3033 3031 3030 3025 3021 3016 3011 3002 2996 2989 2987 2984 2985 2984 2986 2989 2985 2984 2983 2980 2977 2977 2977 2978 2979 2975 2974 2978 2979 2980 2980 2981 2984 2986 2987
Wind_Speed
19 19 19 20 21 22 22 22 21 22 22 22 22 25 25 25 28 28 28 28 32 35 35 35 35 33 33 33 32 28 27 30 29 27 23 16 17 18 17 19 18 16 12 16 22
11 12 12 12 12 13 14 14 14 15 15 14 15 17 18 20 22 24 26 28 31 34 34 36 36 34 36 38 36 35 33 37 29 24 23 21 18 17 19 22 22 17 19 22 24
9 8 8 7 6 5 6 6 9 11 11 10 11 12 13 14 16 20 22 25 28 31 35 37 38 40 39 34 38 37 45 32 32 28 25 25 27 20 22 27 27 21 19 22 25
5 5 5 4 4 5 7 8 10 12 10 9 9 11 11 11 4 13 15 17 20 23 31 37 38 41 43 41 35 38 39 39 34 28 29 33 28 32 29 29 29 27 29 27 28
6 6 6 7 8 9 11 12 13 14 13 13 14 13 11 11 14 13 13 16 19 23 25 30 36 38 40 31 35 40 44 35 35 31 30 37 41 37 37 31 31 40 38 34 31
8 8 10 11 13 14 16 17 17 16 15 15 14 14 13 12 11 12 14 14 15 19 25 29 28 33 37 34 33 36 36 43 38 32 32 38 47 32 46 36 41 43 42 37 38
8 9 10 12 14 15 16 18 18 19 18 16 15 15 16 10 11 15 15 18 19 18 21 28 30 33 26 33 35 36 37 33 35 43 40 27 44 55 49 39 37 50 45 43 44
11 11 12 13 15 17 18 19 19 19 18 17 17 13 15 10 15 16 15 14 16 20 21 21 28 34 35 28 24 25 33 41 52 36 38 35 48 64 50 48 45 53 52 50 49
13 14 15 14 16 17 18 18 18 18 18 16 17 13 2 17 20 22 19 16 17 16 18 21 17 26 25 28 28 31 42 45 46 41 39 30 56 68 51 40 44 40 51 55 52
16 17 18 17 18 19 18 19 19 18 15 16 8 9 10 13 20 16 17 17 17 17 15 15 16 17 22 29 41 43 37 41 42 36 38 44 53 48 32 27 42 45 40 40 52
16 18 18 18 17 18 17 19 21 16 16 14 14 8 14 19 16 17 17 17 16 12 10 13 15 21 22 30 40 35 36 35 35 35 34 45 53 48 43 44 43 37 37 39 41
15 17 17 17 18 18 17 18 17 16 14 14 8 7 16 18 14 9 17 11 12 11 11 14 21 17 21 25 32 35 37 40 27 25 33 40 45 42 40 43 43 43 44 47 54
18 17 18 18 19 18 17 19 18 17 18 9 4 11 12 15 15 8 13 13 13 13 13 20 20 17 17 20 27 31 36 36 36 21 27 28 36 38 38 35 38 41 45 49 51
19 18 17 17 17 17 18 19 17 15 5 4 3 7 11 14 9 16 7 13 11 14 14 18 16 20 19 22 23 34 31 29 36 34 35 25 28 35 34 37 41 42 40 43 45
20 19 17 16 15 17 20 19 17 11 5 4 4 11 13 10 12 10 9 13 16 18 16 25 23 17 19 20 22 25 29 29 26 34 38 41 30 34 30 34 33 31 34 35 41
20 19 17 15 15 17 19 17 15 2 2 2 6 12 14 11 14 11 12 13 16 16 15 22 17 20 20 16 16 20 19 27 28 24 25 35 30 32 31 35 26 27 29 28 30
21 19 17 15 14 17 16 14 5 5 6 4 9 14 16 11 14 12 15 14 12 14 13 18 14 15 24 23 19 16 22 17 22 25 19 30 27 30 3 11 12 11 12 14 17
21 20 17 14 15 13 13 5 6 4 9 11 13 19 12 12 12 18 14 15 11 12 17 11 13 11 9 29 27 27 27 26 18 16 22 38 20 27 21 25 14 12 12 12 13
20 20 17 15 15 11 10 6 5 8 7 13 17 10 10 12 17 16 14 11 6 11 10 16 9 15 12 13 25 28 24 29 34 29 23 31 35 31 17 7 5 4 8 12 18
18 18 13 16 14 11 5 8 6 10 11 10 11 9 16 18 15 12 13 8 9 11 11 12 19 13 10 15 17 23 20 11 31 16 18 19 31 21 22 25 11 5 10 12 21
18 15 12 15 11 9 6 8 12 10 10 7 11 17 15 16 13 14 10 15 9 8 14 17 15 14 13 11 19 16 15 17 21 30 9 13 21 28 16 18 7 5 13 10 16
17 6 13 12 8 14 8 15 17 10 8 11 14 13 13 15 16 16 16 14 16 17 17 17 15 19 17 12 10 8 16 19 9 20 24 16 5 16 24 11 8 14 17 13 13
19 9 14 10 7 13 13 14 12 8 6 7 10 12 16 18 15 12 17 15 16 17 11 8 11 14 14 8 12 15 17 13 23 13 22 14 7 19 15 5 11 17 19 19 10
20 12 15 9 13 13 15 8 7 10 11 8 14 16 13 15 15 21 25 24 21 18 19 19 19 20 17 22 12 11 12 15 15 18 20 25 21 13 10 7 14 15 18 18 4
18 14 15 9 9 15 12 11 10 9 8 12 12 12 16 24 23 28 23 22 24 25 23 21 24 21 23 24 23 22 21 20 22 24 26 26 29 28 20 19 20 17 15 14 5
15 19 20 14 12 14 10 7 10 9 17 13 17 16 20 24 25 39 34 35 37 34 24 24 23 19 25 22 24 27 26 25 26 27 29 31 39 31 26 27 25 19 14 11 9
12 14 22 20 11 12 7 9 13 18 10 11 15 23 25 25 27 31 33 28 30 34 30 24 23 14 21 16 17 23 26 26 29 27 28 34 36 27 28 26 25 20 15 12 4
Wind_Direction
289 290 291 289 288 288 288 286 287 286 284 285 283 279 276 271 267 262 257 254 248 244 238 238 235 232 233 235 237 236 238 243 240 240 241 233 236 224 219 208 198 182 182 194 197
307 307 305 303 301 300 300 303 301 296 298 304 300 294 289 280 270 263 257 251 245 243 241 236 235 232 231 233 232 231 235 241 241 241 244 246 239 223 228 213 199 186 191 177 172
323 322 323 323 326 328 328 323 316 317 326 326 319 310 304 298 287 265 257 251 246 243 238 237 232 231 232 230 229 235 237 244 242 240 243 246 236 232 228 217 210 208 218 206 194
9 37 49 35 9 346 333 326 322 321 323 324 323 312 314 313 252 275 272 260 250 244 238 234 230 231 234 232 233 235 240 241 241 241 240 242 241 239 237 233 215 230 219 212 216
43 30 10 354 344 336 329 327 323 321 324 327 331 324 323 320 298 295 275 264 254 248 242 239 234 230 232 238 234 240 241 242 248 238 245 240 241 242 242 240 239 228 233 229 227
359 352 347 342 338 335 331 328 323 321 326 327 330 328 329 329 300 311 316 302 279 258 252 241 239 234 238 236 233 240 249 246 240 246 242 246 239 245 242 243 242 243 236 239 234
329 329 330 329 327 328 327 327 323 323 326 328 328 328 331 326 320 324 324 311 298 281 255 252 243 243 240 244 242 239 247 246 242 238 242 244 250 236 237 240 248 246 244 248 254
324 322 324 328 327 329 330 327 323 322 324 325 327 326 326 320 332 334 333 319 303 291 284 264 251 248 244 242 242 243 245 246 242 240 240 232 249 244 243 246 249 250 252 255 259
334 330 329 328 325 328 326 323 322 320 321 319 321 322 291 334 340 331 328 314 299 283 276 287 274 254 247 242 250 241 240 238 249 238 239 226 244 248 244 246 252 252 253 253 258
328 323 323 325 324 326 325 325 328 322 315 321 316 335 307 333 324 328 325 321 316 301 287 281 282 260 245 229 232 233 240 248 250 243 238 237 246 246 242 244 248 251 252 255 258
325 319 319 320 320 324 325 331 337 331 322 308 298 298 315 333 331 333 322 324 331 319 261 264 262 259 259 245 245 249 250 249 251 245 241 237 245 251 248 249 247 246 251 252 255
332 321 322 324 325 328 327 334 333 320 321 303 296 312 324 329 343 323 324 327 312 295 272 272 264 275 267 250 245 245 245 246 254 240 236 238 246 251 248 247 249 252 254 256 259
335 326 324 325 325 325 326 333 333 330 323 288 277 322 327 325 321 311 312 314 305 291 279 263 265 273 272 258 248 244 243 243 241 249 239 242 250 246 246 249 248 250 256 260 259
340 334 327 325 324 325 330 335 333 332 313 240 285 313 330 326 311 309 298 311 298 290 290 277 278 261 260 259 253 248 242 247 243 241 243 234 256 250 253 256 254 256 257 260 260
346 339 334 331 326 327 328 335 337 340 277 262 270 320 332 315 314 322 292 310 295 290 277 273 277 271 254 259 248 257 241 243 244 240 245 245 254 257 248 250 250 252 256 260 262
345 343 338 337 333 329 331 335 336 341 238 287 309 324 328 316 320 307 308 300 296 293 288 293 273 249 246 253 251 251 245 242 236 249 244 238 237 259 254 249 249 261 258 261 258
343 343 338 337 333 331 334 340 324 268 311 288 310 323 321 315 323 326 320 317 297 304 302 306 276 268 239 242 238 234 232 234 225 226 238 234 233 240 352 180 214 266 234 255 254
341 340 339 337 338 336 340 344 268 284 301 298 317 319 308 320 327 328 322 313 300 297 307 312 310 338 251 234 239 234 229 234 232 228 230 229 233 225 240 258 255 251 264 262 265
341 338 336 338 338 339 346 280 278 304 303 314 327 317 318 320 315 323 319 313 298 308 315 316 300 312 264 251 232 240 236 241 255 276 242 223 221 244 232 232 213 249 289 286 243
342 336 331 335 332 334 328 283 280 298 299 310 309 305 314 319 311 316 316 296 308 297 301 306 307 309 276 270 246 230 248 279 236 255 234 224 212 219 222 226 226 269 325 287 238
343 335 330 334 331 333 299 291 302 301 287 285 289 294 301 310 301 301 293 299 296 285 293 300 286 289 286 268 237 240 236 241 236 233 255 225 210 210 146 149 149 16 0 325 213
343 346 328 336 331 329 324 302 312 318 294 281 290 288 298 301 292 288 286 279 290 287 297 286 277 279 280 272 241 273 247 243 265 226 245 299 90 148 162 142 47 23 11 351 205
345 349 337 337 309 314 314 318 309 316 296 279 281 281 297 289 295 283 284 283 289 286 277 279 263 281 267 208 214 230 239 257 250 268 272 233 176 165 150 89 15 13 8 6 192
344 357 335 339 324 324 324 328 315 305 301 280 290 296 300 288 278 287 286 284 279 272 266 273 260 255 273 286 304 288 263 254 258 272 250 241 238 181 213 290 325 350 3 11 204
341 334 338 318 315 322 319 320 319 320 292 302 302 295 299 296 295 289 288 284 273 268 263 259 253 256 263 269 272 271 267 257 249 253 259 258 252 245 252 279 296 316 343 356 342
340 326 332 337 322 330 312 318 303 310 307 298 292 298 297 289 288 292 295 291 290 292 256 257 264 263 265 260 259 267 266 258 252 249 249 253 256 248 260 274 284 298 306 332 340
333 322 335 337 336 320 314 310 307 313 324 317 301 302 304 303 298 302 297 304 290 285 267 239 257 255 256 252 259 264 265 262 255 247 245 248 255 260 261 268 276 278 290 301 307